| time (UTC) | temp F | wind direction | speed MPH | gust MPH | rain 1hr in | rain 24hr in | rain mn in | humidity % | barometer mb |
| 20260505032728 | 36 | 293 | 1.0 | 2.0 | 0.00 | 0.03 | 0.03 | 84 | 1003.1 |
| 20260505032224 | 36 | 235 | 1.0 | 2.0 | 0.00 | 0.03 | 0.03 | 84 | 1003.0 |
| 20260505031722 | 37 | 237 | 4.0 | 6.0 | 0.00 | 0.03 | 0.03 | 83 | 1003.0 |
| 20260505031218 | 37 | 292 | 2.0 | 2.0 | 0.00 | 0.03 | 0.03 | 82 | 1003.0 |
| 20260505030715 | 37 | 237 | 1.0 | 2.0 | 0.00 | 0.03 | 0.03 | 81 | 1003.0 |
| 20260505030211 | 38 | 279 | 1.0 | 2.0 | 0.00 | 0.03 | 0.03 | 81 | 1003.0 |
| 20260505025707 | 38 | 230 | 1.0 | 2.0 | 0.00 | 0.03 | 0.03 | 81 | 1002.8 |
| 20260505025206 | 38 | 188 | 4.0 | 6.0 | 0.00 | 0.03 | 0.03 | 79 | 1002.7 |
| 20260505024703 | 38 | 307 | 2.0 | 3.0 | 0.00 | 0.03 | 0.03 | 80 | 1002.7 |
| 20260505024200 | 38 | 296 | 2.0 | 8.0 | 0.00 | 0.03 | 0.03 | 80 | 1002.6 |
| 20260505023657 | 38 | 259 | 6.0 | 7.0 | 0.00 | 0.03 | 0.03 | 79 | 1002.5 |
| 20260505023154 | 39 | 290 | 3.0 | 6.0 | 0.00 | 0.03 | 0.03 | 77 | 1002.6 |
| 20260505022652 | 39 | 212 | 1.0 | 1.0 | 0.00 | 0.03 | 0.03 | 76 | 1002.7 |
| 20260505022149 | 39 | 249 | 2.0 | 3.0 | 0.00 | 0.03 | 0.03 | 76 | 1002.5 |
| 20260505021645 | 39 | 159 | 0.0 | 0.0 | 0.00 | 0.03 | 0.03 | 75 | 1002.3 |
| 20260505021142 | 39 | 212 | 1.0 | 1.0 | 0.00 | 0.03 | 0.03 | 73 | 1002.3 |
| 20260505020638 | 39 | 237 | 2.0 | 3.0 | 0.00 | 0.03 | 0.03 | 73 | 1002.2 |
| 20260505020134 | 40 | 285 | 4.0 | 4.0 | 0.00 | 0.03 | 0.03 | 71 | 1002.1 |
| 20260505015631 | 40 | 211 | 0.0 | 1.0 | 0.00 | 0.03 | 0.03 | 71 | 1002.0 |
| 20260505015128 | 40 | 245 | 1.0 | 1.0 | 0.00 | 0.03 | 0.03 | 70 | 1002.0 |
| 20260505014624 | 40 | 288 | 3.0 | 4.0 | 0.00 | 0.03 | 0.03 | 69 | 1001.9 |
| 20260505014122 | 40 | 228 | 1.0 | 1.0 | 0.00 | 0.03 | 0.03 | 69 | 1001.8 |
| 20260505013619 | 41 | 233 | 1.0 | 2.0 | 0.00 | 0.03 | 0.03 | 68 | 1001.7 |
| 20260505013116 | 41 | 224 | 5.0 | 9.0 | 0.00 | 0.03 | 0.03 | 67 | 1001.7 |
| 20260505012615 | 41 | 267 | 3.0 | 6.0 | 0.00 | 0.03 | 0.03 | 63 | 1001.8 |
| 20260505012111 | 41 | 222 | 2.0 | 4.0 | 0.00 | 0.03 | 0.03 | 64 | 1001.5 |
| 20260505011607 | 41 | 247 | 5.0 | 7.0 | 0.00 | 0.03 | 0.03 | 62 | 1001.7 |
| 20260505011104 | 41 | 245 | 2.0 | 3.0 | 0.00 | 0.03 | 0.03 | 62 | 1001.7 |
| 20260505010559 | 42 | 225 | 4.0 | 4.0 | 0.00 | 0.03 | 0.03 | 61 | 1001.5 |
| 20260505010056 | 42 | 201 | 3.0 | 4.0 | 0.00 | 0.03 | 0.03 | 60 | 1001.5 |
| 20260505005552 | 42 | 287 | 3.0 | 4.0 | 0.00 | 0.03 | 0.03 | 55 | 1001.3 |
| 20260505005050 | 42 | 198 | 3.0 | 3.0 | 0.00 | 0.03 | 0.03 | 57 | 1001.3 |
| 20260505004546 | 42 | 284 | 2.0 | 4.0 | 0.00 | 0.03 | 0.03 | 57 | 1001.2 |
| 20260505004043 | 42 | 221 | 3.0 | 4.0 | 0.00 | 0.03 | 0.03 | 57 | 1001.2 |
| 20260505003541 | 42 | 252 | 6.0 | 9.0 | 0.00 | 0.03 | 0.03 | 57 | 1000.9 |
| 20260505003038 | 42 | 237 | 3.0 | 4.0 | 0.00 | 0.03 | 0.03 | 56 | 1001.3 |
| 20260505002537 | 42 | 259 | 7.0 | 9.0 | 0.00 | 0.03 | 0.03 | 56 | 1001.2 |
| 20260505002032 | 43 | 228 | 4.0 | 6.0 | 0.00 | 0.03 | 0.03 | 56 | 1001.0 |
| 20260505001529 | 43 | 227 | 4.0 | 7.0 | 0.00 | 0.03 | 0.03 | 56 | 1000.9 |
| 20260505001026 | 43 | 232 | 4.0 | 6.0 | 0.00 | 0.03 | 0.03 | 56 | 1000.9 |
| 20260505000523 | 43 | 215 | 3.0 | 4.0 | 0.00 | 0.03 | 0.03 | 58 | 1000.9 |
| 20260505000021 | 43 | 278 | 4.0 | 4.0 | 0.00 | 0.03 | 0.03 | 56 | 1000.9 |
| 20260504235517 | 42 | 233 | 5.0 | 7.0 | 0.00 | 0.03 | 0.03 | 57 | 1001.0 |
| 20260504235013 | 43 | 300 | 5.0 | 7.0 | 0.00 | 0.03 | 0.03 | 57 | 1000.8 |
| 20260504234511 | 43 | 267 | 4.0 | 4.0 | 0.00 | 0.03 | 0.03 | 59 | 1000.7 |
| 20260504234008 | 43 | 248 | 3.0 | 4.0 | 0.00 | 0.03 | 0.03 | 60 | 1000.8 |
| 20260504233503 | 43 | 270 | 5.0 | 7.0 | 0.00 | 0.03 | 0.03 | 61 | 1000.6 |
| 20260504233000 | 42 | 189 | 4.0 | 7.0 | 0.00 | 0.03 | 0.03 | 59 | 1000.7 |
| 20260504232457 | 42 | 228 | 2.0 | 3.0 | 0.00 | 0.03 | 0.03 | 60 | 1000.8 |
| 20260504231955 | 42 | 205 | 2.0 | 3.0 | 0.00 | 0.03 | 0.03 | 60 | 1000.7 |
| 20260504231451 | 42 | 221 | 1.0 | 2.0 | 0.00 | 0.03 | 0.03 | 61 | 1000.6 |
| 20260504230947 | 42 | 223 | 3.0 | 4.0 | 0.00 | 0.03 | 0.03 | 63 | 1000.7 |
| 20260504230444 | 42 | 245 | 5.0 | 6.0 | 0.00 | 0.03 | 0.03 | 63 | 1000.5 |
| 20260504225943 | 42 | 248 | 4.0 | 6.0 | 0.00 | 0.03 | 0.03 | 63 | 1000.5 |
| 20260504225439 | 42 | 225 | 5.0 | 6.0 | 0.00 | 0.03 | 0.03 | 63 | 1000.5 |
| 20260504224936 | 42 | 260 | 3.0 | 4.0 | 0.00 | 0.03 | 0.03 | 64 | 1000.6 |
| 20260504224433 | 42 | 217 | 5.0 | 11.0 | 0.00 | 0.03 | 0.03 | 63 | 1000.4 |
| 20260504223930 | 43 | 240 | 4.0 | 7.0 | 0.00 | 0.03 | 0.03 | 63 | 1000.4 |
| 20260504223426 | 42 | 227 | 5.0 | 7.0 | 0.00 | 0.03 | 0.03 | 65 | 1000.4 |
| 20260504222921 | 43 | 213 | 3.0 | 4.0 | 0.00 | 0.03 | 0.03 | 67 | 1000.4 |
| 20260504222419 | 43 | 259 | 5.0 | 9.0 | 0.00 | 0.03 | 0.03 | 68 | 1000.2 |
| 20260504221917 | 43 | 178 | 1.0 | 1.0 | 0.00 | 0.03 | 0.03 | 68 | 1000.1 |
| 20260504221414 | 43 | 275 | 6.0 | 9.0 | 0.00 | 0.03 | 0.03 | 67 | 1000.2 |
| 20260504220911 | 43 | 207 | 7.0 | 9.0 | 0.00 | 0.03 | 0.03 | 67 | 1000.1 |
| 20260504220407 | 42 | 213 | 14.0 | 19.0 | 0.00 | 0.03 | 0.03 | 68 | 1000.2 |
| 20260504215905 | 43 | 249 | 7.0 | 10.0 | 0.00 | 0.03 | 0.03 | 68 | 999.9 |
| 20260504215401 | 43 | 228 | 4.0 | 6.0 | 0.00 | 0.03 | 0.03 | 69 | 999.8 |
| 20260504214857 | 43 | 221 | 4.0 | 6.0 | 0.00 | 0.03 | 0.03 | 68 | 999.7 |
| 20260504214354 | 43 | 230 | 8.0 | 10.0 | 0.00 | 0.03 | 0.03 | 67 | 999.8 |
| 20260504213851 | 44 | 245 | 8.0 | 10.0 | 0.00 | 0.03 | 0.03 | 67 | 999.6 |
| 20260504213347 | 44 | 239 | 8.0 | 11.0 | 0.00 | 0.03 | 0.03 | 67 | 999.7 |
| 20260504212844 | 43 | 262 | 4.0 | 4.0 | 0.00 | 0.03 | 0.03 | 69 | 999.7 |
| 20260504212340 | 43 | 221 | 7.0 | 11.0 | 0.00 | 0.03 | 0.03 | 70 | 999.7 |
| 20260504211838 | 43 | 247 | 6.0 | 9.0 | 0.00 | 0.03 | 0.03 | 69 | 999.5 |
| 20260504211334 | 44 | 233 | 4.0 | 9.0 | 0.00 | 0.03 | 0.03 | 68 | 999.6 |
| 20260504210832 | 44 | 212 | 5.0 | 8.0 | 0.00 | 0.03 | 0.03 | 67 | 999.5 |
| 20260504210328 | 44 | 276 | 4.0 | 4.0 | 0.00 | 0.03 | 0.03 | 68 | 999.5 |
| 20260504205826 | 44 | 210 | 4.0 | 4.0 | 0.00 | 0.03 | 0.03 | 68 | 999.5 |
| 20260504205323 | 44 | 198 | 13.0 | 19.0 | 0.00 | 0.03 | 0.03 | 68 | 999.3 |
| 20260504204821 | 44 | 254 | 4.0 | 4.0 | 0.00 | 0.03 | 0.03 | 68 | 999.5 |
| 20260504204319 | 44 | 266 | 5.0 | 7.0 | 0.00 | 0.03 | 0.03 | 68 | 999.3 |
| 20260504203819 | 44 | 262 | 2.0 | 3.0 | 0.00 | 0.03 | 0.03 | 69 | 999.3 |
| 20260504203315 | 44 | 213 | 7.0 | 10.0 | 0.00 | 0.03 | 0.03 | 67 | 999.0 |
| 20260504202810 | 44 | 248 | 5.0 | 7.0 | 0.00 | 0.03 | 0.03 | 68 | 999.2 |
| 20260504202308 | 44 | 225 | 6.0 | 10.0 | 0.00 | 0.03 | 0.03 | 69 | 999.0 |
| 20260504201804 | 44 | 248 | 6.0 | 9.0 | 0.00 | 0.03 | 0.03 | 68 | 999.3 |
| 20260504201302 | 43 | 178 | 4.0 | 6.0 | 0.00 | 0.03 | 0.03 | 69 | 999.1 |
| 20260504200800 | 44 | 262 | 5.0 | 8.0 | 0.00 | 0.03 | 0.03 | 70 | 999.2 |
| 20260504200256 | 44 | 213 | 4.0 | 8.0 | 0.00 | 0.03 | 0.03 | 70 | 998.9 |
| 20260504195752 | 43 | 217 | 10.0 | 11.0 | 0.00 | 0.03 | 0.03 | 71 | 999.0 |
| 20260504195248 | 44 | 218 | 9.0 | 13.0 | 0.00 | 0.03 | 0.03 | 70 | 998.7 |
| 20260504194745 | 44 | 245 | 10.0 | 13.0 | 0.00 | 0.03 | 0.03 | 69 | 998.8 |
| 20260504194241 | 44 | 236 | 4.0 | 4.0 | 0.00 | 0.03 | 0.03 | 69 | 998.8 |
| 20260504193737 | 43 | 216 | 3.0 | 4.0 | 0.00 | 0.03 | 0.03 | 71 | 998.4 |
| 20260504193235 | 44 | 232 | 6.0 | 8.0 | 0.00 | 0.03 | 0.03 | 70 | 998.4 |
| 20260504192733 | 45 | 222 | 4.0 | 8.0 | 0.00 | 0.03 | 0.03 | 68 | 998.4 |
| 20260504192231 | 44 | 244 | 6.0 | 8.0 | 0.00 | 0.03 | 0.03 | 70 | 998.4 |
| 20260504191730 | 44 | 241 | 4.0 | 4.0 | 0.00 | 0.03 | 0.03 | 72 | 998.4 |
| 20260504191226 | 44 | 210 | 6.0 | 9.0 | 0.00 | 0.03 | 0.03 | 71 | 998.4 |
| 20260504190721 | 44 | 236 | 6.0 | 9.0 | 0.00 | 0.03 | 0.03 | 72 | 998.1 |
| 20260504190218 | 44 | 247 | 5.0 | 8.0 | 0.00 | 0.03 | 0.03 | 71 | 998.1 |
| 20260504185715 | 44 | 265 | 4.0 | 6.0 | 0.00 | 0.03 | 0.03 | 69 | 998.0 |
| 20260504185212 | 47 | 248 | 8.0 | 15.0 | 0.00 | 0.03 | 0.03 | 67 | 998.0 |
| 20260504184708 | 44 | 241 | 5.0 | 7.0 | 0.00 | 0.03 | 0.03 | 71 | 997.8 |
| 20260504184203 | 44 | 240 | 10.0 | 13.0 | 0.00 | 0.03 | 0.03 | 71 | 997.7 |
| 20260504183700 | 45 | 198 | 4.0 | 6.0 | 0.00 | 0.03 | 0.03 | 73 | 997.7 |
| 20260504183157 | 45 | 231 | 4.0 | 4.0 | 0.00 | 0.03 | 0.03 | 72 | 997.5 |
| 20260504182654 | 44 | 204 | 4.0 | 6.0 | 0.00 | 0.03 | 0.03 | 75 | 997.4 |
| 20260504182152 | 44 | 247 | 8.0 | 10.0 | 0.00 | 0.03 | 0.03 | 70 | 997.4 |
| 20260504181649 | 45 | 222 | 5.0 | 7.0 | 0.00 | 0.03 | 0.03 | 72 | 997.3 |
| 20260504181147 | 46 | 246 | 9.0 | 16.0 | 0.00 | 0.03 | 0.03 | 75 | 997.2 |
| 20260504180646 | 43 | 226 | 4.0 | 7.0 | 0.00 | 0.03 | 0.03 | 82 | 997.1 |
| 20260504180144 | 44 | 235 | 10.0 | 14.0 | 0.00 | 0.03 | 0.03 | 81 | 997.3 |
| 20260504175641 | 45 | 226 | 8.0 | 9.0 | 0.00 | 0.03 | 0.03 | 71 | 997.1 |
| 20260504175137 | 47 | 262 | 5.0 | 10.0 | 0.00 | 0.03 | 0.03 | 68 | 997.1 |
| 20260504174636 | 46 | 248 | 9.0 | 13.0 | 0.00 | 0.03 | 0.03 | 70 | 996.9 |
| 20260504174132 | 45 | 220 | 7.0 | 8.0 | 0.00 | 0.03 | 0.03 | 73 | 996.7 |
| 20260504173629 | 45 | 232 | 11.0 | 17.0 | 0.00 | 0.03 | 0.03 | 76 | 996.6 |
| 20260504173127 | 45 | 222 | 2.0 | 3.0 | 0.00 | 0.03 | 0.03 | 76 | 996.7 |
| 20260504172623 | 44 | 231 | 6.0 | 8.0 | 0.00 | 0.03 | 0.03 | 79 | 996.5 |
| 20260504172120 | 45 | 241 | 5.0 | 6.0 | 0.00 | 0.03 | 0.03 | 79 | 996.6 |
| 20260504171616 | 43 | 234 | 3.0 | 3.0 | 0.00 | 0.03 | 0.03 | 84 | 996.5 |
| 20260504171114 | 43 | 241 | 4.0 | 6.0 | 0.00 | 0.03 | 0.03 | 82 | 996.5 |
| 20260504170609 | 46 | 229 | 7.0 | 15.0 | 0.00 | 0.03 | 0.03 | 71 | 996.3 |
| 20260504170107 | 46 | 251 | 9.0 | 11.0 | 0.00 | 0.03 | 0.03 | 70 | 996.4 |
| 20260504150953 | 44 | 205 | 3.0 | 4.0 | 0.00 | 0.03 | 0.03 | 80 | 994.8 |
| 20260504150450 | 44 | 210 | 4.0 | 6.0 | 0.00 | 0.03 | 0.03 | 81 | 994.7 |
| 20260504140916 | 47 | 204 | 4.0 | 6.0 | 0.00 | 0.03 | 0.03 | 83 | 993.2 |
| 20260504140412 | 47 | 217 | 6.0 | 9.0 | 0.00 | 0.03 | 0.03 | 78 | 993.1 |
| 20260504130337 | 46 | 238 | 5.0 | 6.0 | 0.00 | 0.03 | 0.03 | 89 | 992.5 |
| 20260504120300 | 45 | 188 | 6.0 | 7.0 | 0.00 | 0.03 | 0.03 | 93 | 991.8 |
| 20260504110224 | 47 | 308 | 4.0 | 7.0 | 0.00 | 0.00 | 0.00 | 87 | 991.9 |
| 20260504100148 | 51 | 119 | 1.0 | 2.0 | 0.00 | 0.00 | 0.00 | 69 | 991.8 |
| 20260504090110 | 59 | 185 | 6.0 | 7.0 | 0.00 | 0.00 | 0.00 | 40 | 989.8 |
| 20260504081541 | 58 | 226 | 8.0 | 10.0 | 0.00 | 0.00 | 0.00 | 41 | 990.5 |
| 20260504081037 | 58 | 143 | 2.0 | 6.0 | 0.00 | 0.00 | 0.00 | 41 | 990.6 |
| 20260504080533 | 58 | 177 | 7.0 | 9.0 | 0.00 | 0.00 | 0.00 | 41 | 990.7 |
| 20260504050346 | 56 | 174 | 4.0 | 6.0 | 0.00 | 0.00 | 0.00 | 41 | 995.2 |
| 20260504045843 | 57 | 155 | 2.0 | 7.0 | 0.00 | 0.00 | 0.00 | 40 | 995.3 |
| 20260504045338 | 56 | 225 | 4.0 | 4.0 | 0.00 | 0.00 | 0.00 | 40 | 995.1 |
| 20260504044835 | 56 | 115 | 4.0 | 4.0 | 0.00 | 0.00 | 0.00 | 40 | 995.5 |
| 20260504044333 | 55 | 42 | 0.0 | 1.0 | 0.00 | 0.00 | 0.00 | 42 | 995.4 |
| 20260504043830 | 55 | 136 | 1.0 | 2.0 | 0.00 | 0.00 | 0.00 | 42 | 995.7 |
| 20260504043326 | 55 | 156 | 1.0 | 2.0 | 0.00 | 0.00 | 0.00 | 43 | 995.7 |
| 20260504042824 | 55 | 131 | 3.0 | 6.0 | 0.00 | 0.00 | 0.00 | 42 | 995.7 |
| 20260504042320 | 55 | 127 | 1.0 | 3.0 | 0.00 | 0.00 | 0.00 | 43 | 995.9 |
| 20260504041816 | 54 | 120 | 0.0 | 1.0 | 0.00 | 0.00 | 0.00 | 44 | 996.1 |
| 20260504041313 | 54 | 96 | 2.0 | 3.0 | 0.00 | 0.00 | 0.00 | 44 | 996.1 |
| 20260504040809 | 54 | 88 | 1.0 | 1.0 | 0.00 | 0.00 | 0.00 | 44 | 996.5 |
| 20260504040307 | 53 | 104 | 0.0 | 1.0 | 0.00 | 0.00 | 0.00 | 45 | 996.6 |
| 20260504035803 | 53 | 164 | 1.0 | 1.0 | 0.00 | 0.00 | 0.00 | 46 | 996.6 |
| 20260504035300 | 53 | 117 | 0.0 | 1.0 | 0.00 | 0.00 | 0.00 | 46 | 996.9 |
| 20260504034757 | 53 | 155 | 0.0 | 1.0 | 0.00 | 0.00 | 0.00 | 44 | 997.1 |
| 20260504034255 | 53 | 153 | 0.0 | 0.0 | 0.00 | 0.00 | 0.00 | 45 | 997.0 |
| 20260504033752 | 53 | 209 | 1.0 | 2.0 | 0.00 | 0.00 | 0.00 | 45 | 997.3 |
| 20260504033249 | 53 | 88 | 0.0 | 0.0 | 0.00 | 0.00 | 0.00 | 45 | 997.4 |